Regional Weather Roundup
Issued by NWS

Home | Current Version | Previous Version | Graphics & Text | Print | Product List | Glossary Off
Versions: 1 2 3 4 5 6 7 8 9 10 11 12 13 14 15 16 17 18 19 20 21 22 23 24 25 26 27 28 29 30 31 32 33 34 35 36 37 38 39 40 41 42 43 44 45 46 47 48 49 50

000
ASUS43 KDMX 150806
RWRIA

WEATHER ROUNDUP FOR IOWA
NATIONAL WEATHER SERVICE DES MOINES IA
200 AM CST FRI DEC 15 2017

NOTE: "FAIR" INDICATES FEW OR NO CLOUDS BELOW 12,000 FEET WITH NO
SIGNIFICANT WEATHER AND/OR OBSTRUCTIONS TO VISIBILITY.

* - THESE STATIONS ARE NOT NWS STATIONS...THUS NOT UNDER NWS
QUALITY CONTROL.  THEY ALSO DO NOT REPORT WEATHER SUCH
AS PRECIPITATION OR FOG.

IAZ001>003-012>014-020>022-031>034-043>046-150900-
   NORTHWEST IOWA

CITY           SKY/WX    TMP DP  RH WIND       PRES   REMARKS
CARROLL *      CLOUDY    28  21  74 W8        30.06F WCI  20
CHEROKEE *     CLOUDY    29  25  86 W8        30.04F WCI  21
DENISON *      CLOUDY    28  25  86 W5        30.08F WCI  23
LE MARS *      CLOUDY    30  25  80 SW6       30.05F WCI  24
ORANGE CITY *  CLOUDY    28  27  93 W7        30.02F WCI  21
SHELDON *      MIX PCPN  28  25  86 W8        30.00F WCI  20
SIOUX CITY     CLOUDY    30  25  81 W5        30.08F WCI  25
SPENCER        CLOUDY    27  23  85 W9        30.01F WCI  18
STORM LAKE *   CLOUDY    27  23  86 W9        30.03F WCI  17
$$

IAZ055>058-069>071-079>083-090>094-150900-
   SOUTHWEST IOWA

CITY           SKY/WX    TMP DP  RH WIND       PRES   REMARKS
ATLANTIC *     CLOUDY    30  27  86 N5        30.10R WCI  25
AUDUBON *      CLOUDY    28  21  74 NW3       30.08F
CLARINDA *       N/A     36  27  69 N14         N/A  WCI  27
COUNCIL BLFS * CLOUDY    32  27  80 NW7       30.11S WCI  26
CRESTON *      MIX PCPN  32  27  80 N20G26    30.08R WCI  20
HARLAN  *      CLOUDY    30  27  86 NW8       30.13R WCI  23
LAMONI         CLOUDY    32  25  75 W10       30.06F WCI  24
RED OAK *      CLOUDY    34  23  64 NW10      30.12R WCI  26
SHENANDOAH *   CLOUDY    36  25  64 NW15G24   30.13R WCI  26
$$

IAZ047>049-059>061-072>074-084-150900-
   CENTRAL IOWA

CITY           SKY/WX    TMP DP  RH WIND       PRES   REMARKS
AMES           MOCLDY    26  23  88 NW8       30.06S WCI  18
ANKENY *       CLOUDY    28  25  86 NW10      30.08R WCI  19
BOONE *        CLOUDY    27  21  80 NW8       30.04F WCI  18
CHARITON *     CLOUDY    32  27  80 W12       30.04S WCI  23
DES MOINES     MOCLDY    30  24  78 NW15      30.07R WCI  19
GRINNELL*      CLOUDY    28  26  93 NW12      30.05R WCI  17
KNOXVILLE *    CLOUDY    30  25  80 N13       30.04S WCI  20
MARSHALLTOWN   PTCLDY    23  20  88 NW9       30.03S WCI  13
NEWTON *       CLOUDY    28  27  93 NW12      30.05S WCI  18
PELLA *        MOCLDY    29  25  85 NW10      30.06S WCI  20
PERRY *        CLOUDY    27  24  87 NW6       30.07S WCI  21
$$

IAZ004>006-015-016-023>025-035-036-150900-
   NORTH CENTRAL IOWA

CITY           SKY/WX    TMP DP  RH WIND       PRES   REMARKS
ALGONA *       CLOUDY    27  25  93 W10       30.00F WCI  17
CLARION *      CLOUDY    25  25 100 W8        30.02F WCI  16
ESTHERVILLE    CLOUDY    26  22  84 W9        29.99F WCI  17
FORT DODGE *   CLOUDY    25  22  88 W5        30.04F WCI  19
MASON CITY     CLOUDY    24  19  81 W10       30.01S WCI  14
FOREST CITY *  FLURRIES  27  21  80 W7        29.99S WCI  19
WEBSTER CITY * CLOUDY    25  21  86 W8        30.02F WCI  16
IOWA FALLS *   CLOUDY    25  21  87 W9        30.04S WCI  15
$$

IAZ007>011-017>019-026>030-037>042-050>054-066-150900-
   NORTHEAST IOWA

CITY           SKY/WX    TMP DP  RH WIND       PRES   REMARKS
CEDAR RAPIDS   CLOUDY    28  21  75 NW12      30.00S WCI  18
CHARLES CITY * MIX PCPN  25  19  80 W10       29.99S WCI  15
CLINTON *      CLOUDY    25  19  78 W13       29.99F WCI  14
DECORAH *      CLOUDY    23  18  80 NW7G13    29.94F WCI  15
DUBUQUE        CLOUDY    24  18  77 NW13      29.96S WCI  12
MONTICELLO *   CLOUDY    27  19  74 NW10      29.98S WCI  17
OELWEIN *      MOCLDY    23  19  86 NW8       29.99S WCI  14
WATERLOO       MOCLDY    22  15  75 W6        30.01S WCI  14
$$

IAZ064-065-067-068-078-150900-
   EAST CENTRAL IOWA

CITY           SKY/WX    TMP DP  RH WIND       PRES   REMARKS
DAVENPORT      CLOUDY    26  18  71 W12       30.02F WCI  16
IOWA CITY      CLOUDY    29  21  72 NW7       30.04S WCI  22
MT. PLEASANT * CLOUDY    28  19  71 SW7       30.03F WCI  20
MUSCATINE *    CLOUDY    28  19  69 W9        30.04S WCI  20
QUAD CITIES    CLOUDY    27  19  72 W9        30.01S WCI  18
$$

IAZ062-063-075>077-085>089-095>099-150900-
   SOUTHEAST IOWA

CITY           SKY/WX    TMP DP  RH WIND       PRES   REMARKS
BURLINGTON     CLOUDY    27  19  72 SW8       30.03F WCI  19
FAIRFIELD *    CLOUDY    28  21  74 W7        30.03S WCI  21
FORT MADISON * CLOUDY    27  19  74 SW8       30.04F WCI  18
KEOKUK *       CLOUDY    28  21  74 SW8       30.04S WCI  20
OSKALOOSA *    CLOUDY    29  24  80 NW12      30.05S WCI  20
OTTUMWA        CLOUDY    30  22  72 NW10      30.04S WCI  21
WASHINGTON *   CLOUDY    28  21  74 W8        30.05R WCI  20
$$

ABBREVIATIONS USED IN REMARKS
   TC - TEMPERATURES IN CELSIUS
  WCI - WIND CHILL INDEX
   HX - HEAT INDEX
  VSB - VISIBILITY
$$





USA.gov is the U.S. government's official web portal to all federal, state and local government web resources and services.